軌道要素
Epoch 2019 Dec. 23.0 TT = JDT 2458840.5
T 2020 Jan. 8.32038 TT Rudenko
q 0.9780100 (2000.0) P Q
z +0.0009216 Peri. 68.20856 -0.35080778 -0.44394477
+/-0.0000256 Node 286.37907 -0.76702751 +0.64133385
e 0.9990986 Incl. 120.75010 +0.53721756 +0.62578265
From 434 observations 2020 Jan. 10-Apr. 22, mean residual 0".6.
|